FW7257 Weather Reports


Display with metric or nautical units.
time (UTC)temp
F
wind
direction
speed
MPH
gust
MPH
rain 1hr
in
rain 24hr
in
rain mn
in
humidity
%
barometer
mb
20260510174439 82 165 1.0 2.0 0.00 0.00 0.00 43 1018.3
20260510173935 82 163 1.0 3.0 0.00 0.00 0.00 45 1018.2
20260510173440 81 0 0.0 6.0 0.00 0.00 0.00 48 1018.3
20260510172942 81 176 1.0 6.0 0.00 0.00 0.00 45 1018.5
20260510172438 81 169 1.0 5.0 0.00 0.00 0.00 46 1018.5
20260510171937 81 231 4.0 5.0 0.00 0.00 0.00 43 1018.5
20260510171442 80 198 1.0 5.0 0.00 0.00 0.00 47 1018.5
20260510170940 80 0 0.0 5.0 0.00 0.00 0.00 45 1018.6
20260510170439 80 256 4.0 4.0 0.00 0.00 0.00 47 1018.6
20260510165939 80 183 1.0 3.0 0.00 0.00 0.00 45 1018.6
20260510165440 81 214 3.0 2.0 0.00 0.00 0.00 50 1018.7
20260510164936 80 171 0.0 2.0 0.00 0.00 0.00 51 1018.7
20260510164441 79 240 1.0 5.0 0.00 0.00 0.00 52 1018.6
20260510163939 79 0 0.0 5.0 0.00 0.00 0.00 53 1018.8
20260510163440 79 212 1.0 4.0 0.00 0.00 0.00 50 1018.7
20260510162942 80 198 1.0 3.0 0.00 0.00 0.00 50 1018.8
20260510162442 79 269 2.0 4.0 0.00 0.00 0.00 54 1018.9
20260510161944 78 228 1.0 4.0 0.00 0.00 0.00 53 1019.0
20260510161441 78 193 2.0 4.0 0.00 0.00 0.00 54 1018.9
20260510160943 77 204 1.0 5.0 0.00 0.00 0.00 55 1019.1
20260510160437 77 257 2.0 5.0 0.00 0.00 0.00 54 1019.0
20260510155940 76 159 2.0 5.0 0.00 0.00 0.00 56 1019.0
20260510155441 77 188 1.0 5.0 0.00 0.00 0.00 52 1019.0
20260510154938 76 182 3.0 5.0 0.00 0.00 0.00 54 1019.0
20260510154441 77 251 3.0 4.0 0.00 0.00 0.00 56 1019.0
20260510153938 76 241 0.0 4.0 0.00 0.00 0.00 55 1019.0
20260510153437 76 223 2.0 5.0 0.00 0.00 0.00 54 1019.1
20260510152937 77 224 1.0 5.0 0.00 0.00 0.00 55 1019.0
20260510152437 76 219 1.0 3.0 0.00 0.00 0.00 60 1019.1
20260510151938 76 235 0.0 4.0 0.00 0.00 0.00 59 1019.1
20260510151437 75 245 1.0 6.0 0.00 0.00 0.00 60 1019.1
20260510150941 75 183 0.0 6.0 0.00 0.00 0.00 61 1019.2
20260510150440 75 251 1.0 5.0 0.00 0.00 0.00 61 1019.3
20260510145937 76 239 3.0 5.0 0.00 0.00 0.00 60 1019.2
20260510145440 75 0 0.0 4.0 0.00 0.00 0.00 62 1019.1
20260510144940 74 231 1.0 4.0 0.00 0.00 0.00 63 1019.1
20260510144440 74 209 2.0 6.0 0.00 0.00 0.00 63 1018.9
20260510143936 74 191 2.0 6.0 0.00 0.00 0.00 64 1019.0
20260510143437 75 275 3.0 3.0 0.00 0.00 0.00 65 1019.0
20260510142941 75 247 1.0 2.0 0.00 0.00 0.00 67 1018.9
20260510142439 73 0 0.0 4.0 0.00 0.00 0.00 72 1019.0
20260510141936 73 261 1.0 4.0 0.00 0.00 0.00 71 1018.9
20260510141435 73 220 1.0 4.0 0.00 0.00 0.00 72 1018.9
20260510140942 72 191 0.0 5.0 0.00 0.00 0.00 73 1018.9
20260510140438 72 218 1.0 5.0 0.00 0.00 0.00 73 1018.9
20260510135938 71 157 1.0 5.0 0.00 0.00 0.00 76 1018.8
20260510135439 71 255 2.0 5.0 0.00 0.00 0.00 75 1018.7
20260510134937 71 214 3.0 4.0 0.00 0.00 0.00 76 1018.7
20260510134441 70 0 0.0 4.0 0.00 0.00 0.00 78 1018.6
20260510133941 70 205 2.0 4.0 0.00 0.00 0.00 79 1018.6
20260510133440 70 207 2.0 2.0 0.00 0.00 0.00 80 1018.7
20260510132941 69 0 0.0 3.0 0.00 0.00 0.00 82 1018.6
20260510132440 68 0 0.0 3.0 0.00 0.00 0.00 82 1018.6
20260510131938 69 209 1.0 2.0 0.00 0.00 0.00 83 1018.6
20260510131440 67 0 0.0 5.0 0.00 0.00 0.00 84 1018.5
20260510130941 67 0 0.0 5.0 0.00 0.00 0.00 85 1018.5
20260510130437 66 0 0.0 4.0 0.00 0.00 0.00 85 1018.6
20260510125942 66 0 0.0 3.0 0.00 0.00 0.00 86 1018.7
20260510125441 66 236 1.0 3.0 0.00 0.00 0.00 87 1018.6
20260510124940 65 208 2.0 3.0 0.00 0.00 0.00 87 1018.6
20260510124442 65 219 0.0 5.0 0.00 0.00 0.00 89 1018.6
20260510123938 64 0 0.0 5.0 0.00 0.00 0.00 90 1018.6
20260510123447 63 212 1.0 2.0 0.00 0.00 0.00 92 1018.6
20260510122943 63 0 0.0 5.0 0.00 0.00 0.00 92 1018.5
20260510122443 62 0 0.0 5.0 0.00 0.00 0.00 93 1018.5
20260510121943 62 218 2.0 3.0 0.00 0.00 0.00 94 1018.3
20260510121443 62 0 0.0 2.0 0.00 0.00 0.00 95 1018.2
20260510120943 62 0 0.0 0.0 0.00 0.00 0.00 95 1018.3
20260510120443 61 0 0.0 1.0 0.00 0.00 0.00 95 1018.3
20260510115941 61 0 0.0 1.0 0.00 0.00 0.00 95 1018.3
20260510115442 61 235 1.0 2.0 0.00 0.00 0.00 95 1018.2
20260510114944 61 0 0.0 2.0 0.00 0.00 0.00 95 1018.1
20260510114447 61 0 0.0 1.0 0.00 0.00 0.00 95 1017.9
20260510113942 61 0 0.0 2.0 0.00 0.00 0.00 95 1017.7
20260510113442 61 0 0.0 2.0 0.00 0.00 0.00 95 1017.6
20260510112942 61 0 0.0 1.0 0.00 0.00 0.00 95 1017.6
20260510112441 61 194 0.0 3.0 0.00 0.00 0.00 95 1017.6
20260510111943 61 196 1.0 3.0 0.00 0.00 0.00 96 1017.5
20260510111440 61 0 0.0 2.0 0.00 0.00 0.00 96 1017.4
20260510110940 61 152 0.0 1.0 0.00 0.00 0.00 96 1017.3
20260510110443 60 0 0.0 1.0 0.00 0.00 0.00 96 1017.3
20260510105942 60 0 0.0 2.0 0.00 0.00 0.00 96 1017.1
20260510105440 60 0 0.0 2.0 0.00 0.00 0.00 96 1017.1
20260510104941 59 0 0.0 1.0 0.00 0.00 0.00 96 1017.0
20260510104441 59 0 0.0 1.0 0.00 0.00 0.00 96 1017.0
20260510103940 59 0 0.0 0.0 0.00 0.00 0.00 96 1017.0
20260510103443 58 0 0.0 0.0 0.00 0.00 0.00 96 1017.0
20260510102940 58 0 0.0 0.0 0.00 0.00 0.00 96 1016.8
20260510102440 58 0 0.0 0.0 0.00 0.00 0.00 96 1016.9
20260510101942 58 0 0.0 0.0 0.00 0.00 0.00 95 1016.7
20260510101440 58 0 0.0 0.0 0.00 0.00 0.00 95 1016.7
20260510100939 58 0 0.0 0.0 0.00 0.00 0.00 95 1016.6
20260510100441 58 0 0.0 0.0 0.00 0.00 0.00 95 1016.6
20260510095941 58 0 0.0 0.0 0.00 0.00 0.00 95 1016.7
20260510095438 58 0 0.0 0.0 0.00 0.00 0.00 95 1016.6
20260510094938 58 0 0.0 0.0 0.00 0.00 0.00 95 1016.6
20260510094440 58 0 0.0 0.0 0.00 0.00 0.00 94 1016.6
20260510093939 58 0 0.0 0.0 0.00 0.00 0.00 94 1016.4
20260510093440 58 0 0.0 0.0 0.00 0.00 0.00 94 1016.4
20260510092940 58 0 0.0 0.0 0.00 0.00 0.00 94 1016.4
20260510092439 59 0 0.0 0.0 0.00 0.00 0.00 94 1016.3
20260510091937 59 0 0.0 0.0 0.00 0.00 0.00 94 1016.2
20260510091440 59 0 0.0 1.0 0.00 0.00 0.00 94 1016.3
20260510090944 59 0 0.0 1.0 0.00 0.00 0.00 95 1016.2
20260510090440 59 225 0.0 0.0 0.00 0.00 0.00 94 1016.2
20260510085937 59 0 0.0 0.0 0.00 0.00 0.00 94 1016.3
20260510085438 59 0 0.0 0.0 0.00 0.00 0.00 94 1016.2
20260510084937 59 0 0.0 0.0 0.00 0.00 0.00 94 1016.0
20260510084438 59 0 0.0 0.0 0.00 0.00 0.00 94 1016.0
20260510083939 59 0 0.0 0.0 0.00 0.00 0.00 94 1015.9
20260510083437 60 0 0.0 0.0 0.00 0.00 0.00 94 1015.7
20260510082936 60 0 0.0 0.0 0.00 0.00 0.00 94 1015.8
20260510082435 60 0 0.0 0.0 0.00 0.00 0.00 94 1015.7
20260510081936 60 0 0.0 0.0 0.00 0.00 0.00 94 1015.7
20260510081438 60 0 0.0 0.0 0.00 0.00 0.00 94 1015.6
20260510080936 60 0 0.0 0.0 0.00 0.00 0.00 94 1015.5
20260510080435 60 0 0.0 0.0 0.00 0.00 0.00 93 1015.6
20260510075938 60 0 0.0 0.0 0.00 0.00 0.00 94 1015.6
20260510075437 60 0 0.0 0.0 0.00 0.00 0.00 93 1015.5
20260510074935 60 0 0.0 0.0 0.00 0.00 0.00 92 1015.5
20260510074435 60 0 0.0 0.0 0.00 0.00 0.00 92 1015.5
20260510073936 60 0 0.0 0.0 0.00 0.00 0.00 92 1015.6
20260510073437 60 0 0.0 0.0 0.00 0.00 0.00 92 1015.5
20260510072935 60 0 0.0 0.0 0.00 0.00 0.00 92 1015.4
20260510072434 60 0 0.0 0.0 0.00 0.00 0.00 92 1015.4
20260510071934 60 0 0.0 0.0 0.00 0.00 0.00 92 1015.4
20260510071333 60 0 0.0 0.0 0.00 0.00 0.00 92 1015.2
20260510070841 61 0 0.0 1.0 0.00 0.00 0.00 92 1015.4
20260510070333 61 0 0.0 1.0 0.00 0.00 0.00 92 1015.5
20260510065835 61 0 0.0 0.0 0.00 0.00 0.00 91 1015.5
20260510065336 61 0 0.0 0.0 0.00 0.00 0.00 91 1015.4
20260510064837 61 0 0.0 0.0 0.00 0.00 0.00 91 1015.3
20260510064335 61 0 0.0 0.0 0.00 0.00 0.00 90 1015.4
20260510063838 61 0 0.0 0.0 0.00 0.00 0.00 91 1015.3
20260510063334 61 0 0.0 0.0 0.00 0.00 0.00 90 1015.3
20260510062837 61 0 0.0 0.0 0.00 0.00 0.00 90 1015.3
20260510062338 61 0 0.0 0.0 0.00 0.00 0.00 90 1015.3
20260510061836 62 0 0.0 0.0 0.00 0.00 0.00 90 1015.4
20260510061340 62 0 0.0 0.0 0.00 0.00 0.00 90 1015.5
20260510060932 62 0 0.0 0.0 0.00 0.00 0.00 89 1015.7
20260510060339 62 0 0.0 0.0 0.00 0.00 0.00 89 1015.6
20260510055837 62 0 0.0 0.0 0.00 0.00 0.00 90 1015.6
20260510055341 62 0 0.0 0.0 0.00 0.00 0.00 89 1015.5
20260510054842 62 0 0.0 0.0 0.00 0.00 0.00 89 1015.5
20260510054333 62 0 0.0 1.0 0.00 0.00 0.00 89 1015.6
20260510053834 62 0 0.0 1.0 0.00 0.00 0.00 89 1015.4
20260510053336 62 0 0.0 1.0 0.00 0.00 0.00 89 1015.5
20260510052836 63 0 0.0 1.0 0.00 0.00 0.00 89 1015.6
20260510052338 63 0 0.0 1.0 0.00 0.00 0.00 88 1015.6
20260510051840 63 0 0.0 0.0 0.00 0.00 0.00 88 1015.6
20260510051337 63 0 0.0 0.0 0.00 0.00 0.00 88 1015.7
20260510050840 63 0 0.0 0.0 0.00 0.00 0.00 88 1015.7
20260510050338 63 0 0.0 0.0 0.00 0.00 0.00 88 1015.8
20260510045841 63 0 0.0 0.0 0.00 0.00 0.00 88 1015.7
20260510045334 63 0 0.0 0.0 0.00 0.00 0.00 88 1015.7
20260510044841 63 0 0.0 0.0 0.00 0.00 0.00 88 1016.0
20260510044337 63 0 0.0 0.0 0.00 0.00 0.00 88 1016.0
20260510043840 63 0 0.0 0.0 0.00 0.00 0.00 88 1015.9
20260510043340 63 0 0.0 0.0 0.00 0.00 0.00 89 1016.0
20260510042839 63 0 0.0 0.0 0.00 0.00 0.00 89 1015.9
20260510042340 63 0 0.0 0.0 0.00 0.00 0.00 89 1015.9
20260510041835 62 0 0.0 0.0 0.00 0.00 0.00 90 1016.1
20260510041340 62 0 0.0 0.0 0.00 0.00 0.00 90 1016.1
20260510040844 62 0 0.0 0.0 0.00 0.00 0.00 90 1016.2
20260510040339 62 0 0.0 0.0 0.00 0.00 0.00 90 1016.2
20260510035841 62 0 0.0 0.0 0.00 0.00 0.00 90 1016.3
20260510035336 62 0 0.0 0.0 0.00 0.00 0.00 90 1016.4
20260510034837 62 0 0.0 0.0 0.00 0.00 0.00 90 1016.3
20260510034334 62 0 0.0 0.0 0.00 0.00 0.00 90 1016.1
20260510033837 62 0 0.0 0.0 0.00 0.00 0.00 89 1016.2
20260510033338 62 0 0.0 0.0 0.00 0.00 0.00 89 1016.1
20260510032835 62 0 0.0 0.0 0.00 0.00 0.00 89 1016.2
20260510032339 62 0 0.0 0.0 0.00 0.00 0.00 89 1016.2
20260510031837 62 0 0.0 0.0 0.00 0.00 0.00 89 1016.3
20260510031340 63 0 0.0 0.0 0.00 0.00 0.00 89 1016.1
20260510030838 63 0 0.0 0.0 0.00 0.00 0.00 89 1016.0
20260510030336 63 0 0.0 0.0 0.00 0.00 0.00 88 1016.0
20260510025837 63 0 0.0 0.0 0.00 0.00 0.00 89 1016.0
20260510025342 63 0 0.0 0.0 0.00 0.00 0.00 88 1016.1
20260510024838 63 0 0.0 0.0 0.00 0.00 0.00 88 1015.9
20260510024338 63 0 0.0 0.0 0.00 0.00 0.00 88 1015.8
20260510023837 63 0 0.0 0.0 0.00 0.00 0.00 87 1015.6
20260510023337 63 0 0.0 0.0 0.00 0.00 0.00 87 1015.6
20260510022836 63 0 0.0 0.0 0.00 0.00 0.00 87 1015.5
20260510022341 63 0 0.0 0.0 0.00 0.00 0.00 87 1015.3
20260510021837 64 0 0.0 0.0 0.00 0.00 0.00 86 1015.2
20260510021337 64 0 0.0 0.0 0.00 0.00 0.00 86 1015.1
20260510020838 64 0 0.0 0.0 0.00 0.00 0.00 86 1015.1
20260510020336 64 0 0.0 0.0 0.00 0.00 0.00 86 1015.2
20260510015841 64 0 0.0 0.0 0.00 0.00 0.00 85 1015.2
20260510015338 64 0 0.0 0.0 0.00 0.00 0.00 85 1015.1
20260510014836 64 0 0.0 0.0 0.00 0.00 0.00 85 1015.0
20260510014340 65 0 0.0 0.0 0.00 0.00 0.00 85 1015.0
20260510013842 65 0 0.0 0.0 0.00 0.00 0.00 85 1015.1
20260510013342 65 0 0.0 1.0 0.00 0.00 0.00 85 1015.0
20260510012841 65 0 0.0 1.0 0.00 0.00 0.00 84 1015.0
20260510012342 65 0 0.0 1.0 0.00 0.00 0.00 84 1015.0
20260510011835 65 0 0.0 1.0 0.00 0.00 0.00 84 1014.9
20260510011340 65 0 0.0 0.0 0.00 0.00 0.00 84 1014.8
20260510010840 65 0 0.0 0.0 0.00 0.00 0.00 83 1014.8
20260510010338 65 0 0.0 0.0 0.00 0.00 0.00 83 1014.7
20260510005839 65 0 0.0 0.0 0.00 0.00 0.00 83 1014.7
20260510005336 66 0 0.0 0.0 0.00 0.00 0.00 82 1014.7
20260510004836 66 0 0.0 0.0 0.00 0.00 0.00 82 1014.6
20260510004338 66 0 0.0 0.0 0.00 0.00 0.00 81 1014.6
20260510003841 66 0 0.0 0.0 0.00 0.00 0.00 81 1014.5
20260510003340 66 0 0.0 0.0 0.00 0.00 0.00 81 1014.5
20260510002839 66 0 0.0 0.0 0.00 0.00 0.00 80 1014.5
20260510002340 67 0 0.0 0.0 0.00 0.00 0.00 80 1014.4
20260510001841 67 0 0.0 0.0 0.00 0.00 0.00 79 1014.4
20260510001335 67 0 0.0 0.0 0.00 0.00 0.00 79 1014.4
20260510000841 67 0 0.0 0.0 0.00 0.00 0.00 79 1014.4
20260510000341 68 0 0.0 0.0 0.00 0.00 0.00 78 1014.3
20260509235838 68 0 0.0 0.0 0.00 0.00 0.00 78 1014.3
20260509235340 68 0 0.0 0.0 0.00 0.00 0.00 77 1014.2
20260509234835 68 0 0.0 0.0 0.00 0.00 0.00 77 1014.3
20260509234338 68 0 0.0 1.0 0.00 0.00 0.00 77 1014.1
20260509233838 69 0 0.0 2.0 0.00 0.00 0.00 76 1013.9
20260509233339 69 0 0.0 2.0 0.00 0.00 0.00 76 1013.8
20260509232841 69 0 0.0 1.0 0.00 0.00 0.00 76 1013.7
20260509232338 69 0 0.0 1.0 0.00 0.00 0.00 75 1013.6
20260509231837 70 0 0.0 1.0 0.00 0.00 0.00 75 1013.7
20260509231340 70 0 0.0 1.0 0.00 0.00 0.00 75 1013.9
20260509230841 70 0 0.0 1.0 0.00 0.00 0.00 75 1013.7
20260509230338 70 0 0.0 1.0 0.00 0.00 0.00 75 1013.8
20260509225836 70 0 0.0 1.0 0.00 0.00 0.00 74 1013.7
20260509225340 70 0 0.0 0.0 0.00 0.00 0.00 73 1013.7
20260509224837 71 0 0.0 2.0 0.00 0.00 0.00 73 1013.7
20260509224336 71 0 0.0 2.0 0.00 0.00 0.00 72 1013.7
20260509223842 71 0 0.0 1.0 0.00 0.00 0.00 72 1013.6
20260509223339 71 0 0.0 3.0 0.00 0.00 0.00 72 1013.6
20260509222838 71 0 0.0 3.0 0.00 0.00 0.00 72 1013.5
20260509222340 71 0 0.0 2.0 0.00 0.00 0.00 73 1013.5
20260509221840 71 0 0.0 2.0 0.00 0.00 0.00 72 1013.5
20260509221342 71 237 1.0 2.0 0.00 0.00 0.00 72 1013.5
20260509220837 72 0 0.0 2.0 0.00 0.00 0.00 71 1013.4
20260509220344 72 0 0.0 1.0 0.00 0.00 0.00 71 1013.5
20260509215840 72 0 0.0 0.0 0.00 0.00 0.00 71 1013.5
20260509215341 72 0 0.0 2.0 0.00 0.00 0.00 71 1013.5
20260509214842 72 0 0.0 2.0 0.00 0.00 0.00 71 1013.5
20260509214336 72 213 1.0 2.0 0.00 0.00 0.00 71 1013.5
20260509213842 72 214 1.0 1.0 0.00 0.00 0.00 71 1013.4
20260509213342 72 216 0.0 1.0 0.00 0.00 0.00 72 1013.2
20260509212839 72 0 0.0 1.0 0.00 0.00 0.00 71 1013.2
20260509212342 72 0 0.0 1.0 0.00 0.00 0.00 70 1013.0
20260509211840 72 0 0.0 1.0 0.00 0.00 0.00 71 1012.9
20260509211341 72 0 0.0 2.0 0.00 0.00 0.00 71 1012.9
20260509210838 72 0 0.0 2.0 0.00 0.00 0.00 71 1012.9
20260509210337 72 243 1.0 3.0 0.00 0.00 0.00 70 1012.9
20260509205836 72 0 0.0 3.0 0.00 0.00 0.00 71 1012.8
20260509205341 72 212 1.0 3.0 0.00 0.00 0.00 71 1013.1
20260509204841 72 0 0.0 3.0 0.00 0.00 0.00 71 1013.1
20260509204338 72 233 0.0 2.0 0.00 0.00 0.00 70 1013.3
20260509203836 72 0 0.0 1.0 0.00 0.00 0.00 71 1013.0
20260509203341 72 0 0.0 2.0 0.00 0.00 0.00 70 1013.2
20260509202841 72 0 0.0 5.0 0.00 0.00 0.00 70 1013.2
20260509202339 72 229 1.0 5.0 0.00 0.00 0.00 69 1013.3
20260509201838 72 0 0.0 3.0 0.00 0.00 0.00 70 1013.2
20260509201337 72 210 1.0 3.0 0.00 0.00 0.00 71 1013.4
20260509200839 72 0 0.0 3.0 0.00 0.00 0.00 71 1013.4
20260509200341 72 218 1.0 3.0 0.00 0.00 0.00 70 1013.5
20260509195841 72 236 1.0 3.0 0.00 0.00 0.00 71 1013.4
20260509195337 72 237 2.0 3.0 0.00 0.00 0.00 71 1013.5
20260509194838 72 284 2.0 1.0 0.00 0.00 0.00 71 1013.4
20260509194337 72 0 0.0 3.0 0.00 0.00 0.00 70 1013.5
20260509193837 72 0 0.0 3.0 0.00 0.00 0.00 71 1013.4
20260509193343 71 232 1.0 3.0 0.00 0.00 0.00 70 1013.4
20260509192839 72 0 0.0 2.0 0.00 0.00 0.00 70 1013.6
20260509192342 72 232 1.0 2.0 0.00 0.00 0.00 70 1013.5
20260509191842 72 191 0.0 2.0 0.00 0.00 0.00 70 1013.5
20260509191341 72 191 0.0 2.0 0.00 0.00 0.00 69 1013.6
20260509190840 73 191 1.0 1.0 0.00 0.00 0.00 70 1013.6
20260509190338 72 0 0.0 2.0 0.00 0.00 0.00 71 1013.5
20260509185837 72 196 1.0 2.0 0.00 0.00 0.00 71 1013.3
20260509185336 72 204 1.0 2.0 0.00 0.00 0.00 69 1013.4
20260509184837 72 210 0.0 2.0 0.00 0.00 0.00 70 1013.6
20260509184337 72 189 0.0 2.0 0.00 0.00 0.00 70 1013.5
20260509183844 72 205 0.0 3.0 0.00 0.00 0.00 72 1013.5
20260509183340 71 178 1.0 3.0 0.00 0.00 0.00 72 1013.6
20260509182838 71 198 0.0 2.0 0.00 0.00 0.00 73 1013.9
20260509182339 71 0 0.0 4.0 0.00 0.00 0.00 73 1013.9
20260509181843 70 0 0.0 4.0 0.00 0.00 0.00 73 1013.8
20260509181343 71 174 1.0 2.0 0.00 0.00 0.00 73 1013.9
20260509180838 70 167 1.0 2.0 0.00 0.00 0.00 74 1013.8
20260509180340 70 169 0.0 2.0 0.00 0.00 0.00 74 1013.8
20260509175838 70 152 1.0 2.0 0.00 0.00 0.00 75 1013.6
20260509175339 70 195 1.0 1.0 0.00 0.00 0.00 76 1013.6
20260509174838 70 0 0.0 1.0 0.00 0.00 0.00 75 1013.7